Location: Aciu?a
(46.2833°N, 22.4500°E)
Time: 09:33:57
(UTC+00:00)

Cosmos 1455 - Pass Details

Date: 04 June 2022
Orbit: 492 x 514 km, 82.5° (Epoch: 02 July)

Event Time Altitude Azimuth Distance (km) Brightness Sun altitude
Rises 23:15:16 0° 350° (N) 2,586 7.0 -20.4°
Reaches altitude 10° 23:17:23 10° 349° (N) 1,700 5.8 -20.3°
Maximum altitude 23:21:06 81° 263° (W) 508 2.0 -20.2°
Enters shadow 23:21:27 71° 201° (SSW) 530 1.9 -20.2°
